Location: Caser�o Reixach
(41.4938°N, 2.1817°E)
Time: 23:26:08
(UTC+00:00)

Daily predictions for brighter satellites

Satellite Brightness Start Highest point End
(mag) Time Altitude Azimuth Time Altitude Azimuth Time Altitude Azimuth
Cosmos 2082 Rocket 2.8 16:44:35 10° S 16:49:49 40° ESE 16:55:04 10° NE
Cosmos 468 Rocket 4.2 16:49:56 10° SSW 16:55:05 76° WNW 17:00:18 10° NNE
Meteor 1-25 Rocket 4.2 16:51:29 10° N 16:57:02 65° ENE 17:02:36 10° SSE
Cosmos 1500 Rocket 3.6 16:53:51 10° N 16:58:18 85° E 17:02:41 10° S
CZ-4B DEB 4.5 16:56:25 10° SE 17:01:38 46° ENE 17:06:51 10° N
Cosmos 2221 4.2 16:58:38 10° SW 17:02:33 35° WNW 17:06:31 10° N
Cosmos 1939 Rocket 2.9 16:59:14 10° SSE 17:03:17 64° ENE 17:07:21 10° N
Cosmos 1898 Rocket 3.5 16:58:25 10° NNW 17:03:41 82° ENE 17:08:53 10° SSE
CZ-2C R/B 3.6 17:01:34 10° S 17:03:53 14° SSE 17:06:10 10° ESE
USA 276 3.1 17:00:52 10° WNW 17:03:54 49° SW 17:06:55 10° SE
Cosmos 2278 4.5 16:59:11 10° N 17:04:08 29° NE 17:09:03 10° ESE
ARGOS 4.3 17:01:13 10° ESE 17:05:14 22° ENE 17:09:17 10° NNE
Cosmos 1602 3.8 17:01:33 10° N 17:05:22 57° E 17:09:11 10° SSE
Sich 1 3.3 17:01:24 10° N 17:05:32 44° ENE 17:09:40 10° SSE
Nadezhda 4 Rocket 4.5 17:01:14 10° NNW 17:07:31 70° W 17:13:47 10° S
Cosmos 2084 4.0 17:03:24 10° NW 17:07:43 67° WSW 17:12:12 10° SSE
Cosmos 1833 Rocket 3.1 17:04:04 10° SW 17:09:37 65° WNW 17:15:14 10° NNE
Cosmos 1805 Rocket 3.5 17:05:55 10° N 17:10:14 66° E 17:14:32 10° SSE
COSMOS 2406 3.4 17:07:46 10° SSW 17:13:31 79° WNW 17:19:17 10° NNE
CZ-2C R/B 3.9 17:14:58 10° S 17:19:45 52° W 17:24:26 10° NNW
Cosmos 1782 2.7 17:17:19 10° S 17:21:19 80° E 17:25:19 10° N
USA 267 3.7 17:16:54 10° NE 17:23:16 57° NW 17:29:37 10° WSW
Cosmos 1092 Rocket 4.1 17:18:14 10° N 17:24:37 87° W 17:30:56 10° S
Cosmos 1428 Rocket 4.4 17:19:11 10° N 17:25:20 83° E 17:31:31 10° S
CZ-2D R/B 3.3 17:24:01 10° SSE 17:27:45 54° ENE 17:31:30 10° N
GPS 2-04 Rocket1 4.2 17:24:22 10° WSW 17:28:03 32° S 17:31:44 10° SE
CZ-2C R/B 3.0 17:23:41 10° NNE 17:28:33 39° E 17:33:21 10° SSE
Cosmos 1500 3.0 17:26:20 10° N 17:30:05 74° E 17:33:47 10° SSE
H-2A R/B 2.0 17:25:54 10° SSE 17:30:57 57° ENE 17:35:54 10° N
CZ-4C R/B 3.2 17:24:39 10° NNW 17:31:45 52° NE 17:39:57 10° SE
CZ-4B R/B 3.4 17:27:19 10° SE 17:32:26 44° ENE 17:37:29 10° N
Cosmos 841 Rocket 3.7 17:28:45 10° SSW 17:33:54 74° WNW 17:39:03 10° NNE
PAYLOAD B 4.2 17:28:39 10° SSE 17:34:11 68° ENE 17:39:46 10° N
SMAP 3.8 17:36:00 10° S 17:40:34 56° W 17:45:10 10° NNW
Cosmos 1937 Rocket 4.0 17:36:43 10° NNW 17:41:59 64° WSW 17:47:13 10° S
Cosmos 2142 Rocket 4.4 17:36:50 10° S 17:42:56 74° E 17:49:09 10° N
Cosmos 921 Rocket 3.6 17:40:15 10° SSE 17:44:01 33° E 17:45:22 27° ENE
Lacrosse 5 rocket 2.6 17:41:22 10° NNW 17:44:32 22° NNE 17:44:49 22° NE
COSMO-SKYMED 1 2.6 17:41:39 11° NNE 17:45:49 54° E 17:50:04 10° S
COSMOS 2455 3.3 17:40:26 10° SW 17:46:22 61° WNW 17:52:22 10° NNE
Cosmos 1125 Rocket 4.4 17:42:12 10° N 17:46:36 26° ENE 17:47:31 25° ENE
Cosmos 2279 Rocket 3.9 17:42:09 10° S 17:48:21 77° E 17:54:34 10° N
Cosmos 372 Rocket 4.0 17:44:40 10° NNW 17:49:56 85° WSW 17:55:11 10° SSE
ISS -3.7 17:48:53 10° NW 17:52:14 59° NNE 17:53:03 43° E
Cosmos 1633 Rocket 2.9 17:48:17 10° N 17:52:39 66° E 17:57:00 10° SSE
Helios 1B 4.5 17:49:55 13° NNE 17:53:46 65° ESE 17:58:04 10° S
Cosmos 2360 Rocket 4.0 17:50:44 10° NNE 17:52:12 13° NNE 17:52:12 13° NNE
Cosmos 44 Rocket 3.8 17:50:18 10° NNW 17:54:51 36° NE 17:56:04 31° E
USA 234 3.2 17:48:45 10° SE 17:55:18 87° NE 18:01:53 10° NW
Cosmos 2266 Rocket 4.3 17:49:29 10° N 17:55:32 42° ENE 18:01:34 10° SSE
Meteor 1-10 Rocket 4.4 17:50:12 10° SSE 17:55:44 48° E 18:00:37 13° NNE
SL-24 R/B - RUBIN 2 3.7 17:54:06 10° NW 17:58:33 74° WSW 18:02:50 10° SSE
Meteor 1-11 Rocket 4.2 17:54:04 10° N 17:59:13 36° ENE 18:04:28 10° SE
Cosmos 1666 2.5 17:55:38 10° N 17:59:21 90° N 18:03:03 10° S
Cosmos 1151 Rocket 3.2 17:55:05 10° SSW 17:59:23 74° W 18:03:45 10° N
CZ-4 R/B 4.3 18:01:20 10° SSE 18:05:24 64° ENE 18:09:31 10° N
Cosmos 1900 4.3 18:04:25 10° SSW 18:09:16 81° WNW 18:11:48 29° NNE
X-37B 2.3 18:08:25 10° SSW 18:10:00 22° S 18:10:00 22° S
Okean O Rocket 1.5 18:06:47 10° SSE 18:11:13 79° ENE 18:15:42 10° N
Feng Yun 1-1 Rocket 4.4 18:06:41 10° SE 18:12:25 54° ENE 18:18:07 10° N
Meteor 2-15 4.3 18:06:59 10° S 18:13:03 75° E 18:19:09 10° NNE
Cosmos 2322 Rocket 3.1 18:09:56 10° N 18:13:54 29° NE 18:13:54 29° NE
Landsat 5 3.2 18:16:56 40° NNE 18:18:21 88° ESE 18:22:17 10° SSW
Cosmos 1666 Rocket 4.5 18:15:04 10° NNW 18:19:22 50° W 18:23:35 10° SSW
Cosmos 1812 4.4 18:16:13 10° SW 18:19:43 33° WNW 18:23:14 10° N
Cosmos 1328 Rocket 4.0 18:15:43 10° SSW 18:20:06 63° W 18:24:02 13° N
Cosmos 1980 Rocket 3.0 18:14:50 10° NNW 18:20:18 51° WSW 18:25:42 10° S
SJ-11-01 4.3 18:16:23 10° S 18:21:07 80° WSW 18:25:53 10° NNW
APEX 3.4 18:18:42 10° SSW 18:22:09 56° S 18:22:09 56° S
Cosmos 1470 Rocket 3.4 18:18:18 10° N 18:22:47 82° E 18:27:15 10° S
SL-16 R/B 2.2 18:27:59 10° NNW 18:33:21 55° NE 18:33:21 55° NE
Cosmos 2082 Rocket 3.8 18:28:57 10° WSW 18:33:58 31° NW 18:38:46 11° N
ATLAS CENTAUR R/B 4.1 18:30:05 10° W 18:35:51 22° NW 18:37:45 17° N
Cosmos 2298 Rocket 3.9 18:31:42 10° NNW 18:37:03 81° ENE 18:38:49 44° SSE
Cosmos 1655 Rocket 4.0 18:30:41 10° N 18:37:07 89° W 18:43:27 10° S
DMSP B5D2-2 3.9 18:42:38 77° E 18:42:40 77° ESE 18:47:53 10° S
CZ-2C R/B 2.9 18:39:10 10° SW 18:42:01 26° SSW 18:42:01 26° SSW
ARGOS 3.9 18:39:51 10° S 18:45:06 52° W 18:50:24 10° NNW
NOAA 15 4.5 18:42:50 10° SSE 18:48:08 90° WSW 18:53:27 10° NNW
Cosmos 1818 3.6 18:43:18 10° NW 18:48:47 80° WSW 18:49:43 62° S
GEOS 3 Rocket 4.4 18:54:52 40° N 18:54:52 40° N 18:58:20 10° NNW
Meteor 1-27 Rocket 3.7 18:56:02 10° SSW 19:01:33 75° W 19:01:42 75° WNW
Cosmos 1867 4.2 19:04:40 10° SSW 19:08:41 51° SW 19:08:41 51° SW
CZ-4C R/B 4.1 19:13:19 10° NW 19:20:27 43° WSW 19:28:24 10° S
Lacrosse 5 rocket 4.1 19:19:53 10° NW 19:20:26 14° NW 19:20:26 14° NW
Cosmos 2360 Rocket 4.4 19:33:01 10° NNW 19:33:59 15° NNW 19:33:59 15° NNW
Cosmos 2322 Rocket 4.3 19:53:49 10° NW 19:55:46 21° NW 19:55:46 21° NW
